TimeCDT,TemperatureF,Dew PointF,Humidity,Sea Level PressureIn,VisibilityMPH,Wind Direction,Wind SpeedMPH,Gust SpeedMPH,PrecipitationIn,Events,Conditions,WindDirDegrees,DateUTC
12:13 AM,49.5,32.0,51,29.86,10.0,South,9.2,-,N/A,,Clear,170,2011-11-01 05:13:00
12:33 AM,49.5,32.0,51,29.86,10.0,South,6.9,-,N/A,,Clear,170,2011-11-01 05:33:00
12:53 AM,49.5,32.0,51,29.87,10.0,South,5.8,-,N/A,,Clear,170,2011-11-01 05:53:00
1:13 AM,49.5,32.7,53,29.86,10.0,SSE,4.6,-,N/A,,Clear,160,2011-11-01 06:13:00
1:32 AM,46.9,31.1,54,29.86,10.0,SSE,4.6,-,N/A,,Scattered Clouds,160,2011-11-01 06:32:00
1:53 AM,49.5,32.9,53,29.86,10.0,SSE,5.8,-,N/A,,Overcast,150,2011-11-01 06:53:00
2:13 AM,49.5,32.9,53,29.85,10.0,Calm,Calm,-,N/A,,Overcast,0,2011-11-01 07:13:00
2:33 AM,49.1,32.9,54,29.85,10.0,Calm,Calm,-,N/A,,Overcast,0,2011-11-01 07:33:00
2:53 AM,48.9,32.7,54,29.85,10.0,Calm,Calm,-,N/A,,Overcast,0,2011-11-01 07:53:00
3:13 AM,47.5,31.8,55,29.85,10.0,SSE,3.5,-,N/A,,Overcast,150,2011-11-01 08:13:00
3:33 AM,47.8,32.0,54,29.84,10.0,Calm,Calm,-,N/A,,Scattered Clouds,0,2011-11-01 08:33:00
3:52 AM,46.9,31.1,54,29.85,10.0,Calm,Calm,-,N/A,,Clear,0,2011-11-01 08:52:00
4:13 AM,46.9,32.0,56,29.85,10.0,Calm,Calm,-,N/A,,Clear,0,2011-11-01 09:13:00
4:33 AM,44.6,31.1,59,29.84,10.0,SE,4.6,-,N/A,,Clear,140,2011-11-01 09:33:00
4:52 AM,43.9,31.1,61,29.84,10.0,Calm,Calm,-,N/A,,Clear,0,2011-11-01 09:52:00
5:13 AM,43.2,31.1,62,29.84,10.0,SE,4.6,-,N/A,,Clear,130,2011-11-01 10:13:00
5:33 AM,43.2,31.1,62,29.83,10.0,SE,4.6,-,N/A,,Clear,140,2011-11-01 10:33:00
5:52 AM,43.7,31.1,61,29.83,10.0,SE,3.5,-,N/A,,Clear,140,2011-11-01 10:52:00
6:13 AM,44.6,30.9,59,29.84,10.0,SSE,3.5,-,N/A,,Clear,150,2011-11-01 11:13:00
6:32 AM,44.6,30.9,59,29.85,10.0,Calm,Calm,-,N/A,,Clear,0,2011-11-01 11:32:00
6:53 AM,43.3,30.9,62,29.84,10.0,Calm,Calm,-,N/A,,Clear,0,2011-11-01 11:53:00
7:13 AM,42.6,31.3,64,29.84,10.0,Calm,Calm,-,N/A,,Clear,0,2011-11-01 12:13:00
7:32 AM,41.9,31.6,67,29.84,10.0,Calm,Calm,-,N/A,,Clear,0,2011-11-01 12:32:00
8:13 AM,41.9,32.0,68,29.85,10.0,ESE,3.5,-,N/A,,Clear,110,2011-11-01 13:13:00
8:33 AM,41.9,32.0,68,29.85,10.0,Calm,Calm,-,N/A,,Clear,0,2011-11-01 13:33:00
8:53 AM,42.1,32.0,67,29.86,10.0,Calm,Calm,-,N/A,,Clear,0,2011-11-01 13:53:00
9:12 AM,43.2,32.0,65,29.86,10.0,Calm,Calm,-,N/A,,Clear,0,2011-11-01 14:12:00
9:33 AM,43.7,32.0,63,29.86,10.0,Calm,Calm,-,N/A,,Clear,0,2011-11-01 14:33:00
9:53 AM,44.4,32.0,62,29.87,10.0,Calm,Calm,-,N/A,,Clear,0,2011-11-01 14:53:00
10:13 AM,45.5,32.0,59,29.88,10.0,Calm,Calm,-,N/A,,Clear,0,2011-11-01 15:13:00
10:33 AM,46.9,32.0,56,29.88,10.0,Calm,Calm,-,N/A,,Scattered Clouds,0,2011-11-01 15:33:00
10:52 AM,49.5,33.3,54,29.87,10.0,NW,3.5,-,N/A,,Scattered Clouds,310,2011-11-01 15:52:00
11:13 AM,49.5,33.3,54,29.88,10.0,NW,6.9,-,N/A,,Clear,310,2011-11-01 16:13:00
11:32 AM,49.5,32.4,52,29.88,10.0,NW,8.1,-,N/A,,Clear,320,2011-11-01 16:32:00
11:53 AM,52.0,34.2,51,29.88,10.0,NNW,8.1,-,N/A,,Clear,330,2011-11-01 16:53:00
12:13 PM,55.4,36.1,48,29.88,10.0,North,11.5,18.4,N/A,,Clear,350,2011-11-01 17:13:00
12:33 PM,57.2,37.6,48,29.88,10.0,North,8.1,18.4,N/A,,Clear,360,2011-11-01 17:33:00
12:53 PM,56.5,39.0,52,29.88,10.0,North,8.1,17.3,N/A,,Clear,360,2011-11-01 17:53:00
1:12 PM,57.2,39.0,51,29.89,10.0,North,6.9,-,N/A,,Scattered Clouds,360,2011-11-01 18:12:00
1:33 PM,57.2,39.6,52,29.88,10.0,North,8.1,16.1,N/A,,Mostly Cloudy,360,2011-11-01 18:33:00
1:53 PM,58.5,40.5,51,29.88,10.0,NNW,8.1,-,N/A,,Overcast,340,2011-11-01 18:53:00
2:12 PM,58.3,40.5,52,29.88,10.0,NNW,10.4,-,N/A,,Mostly Cloudy,340,2011-11-01 19:12:00
2:33 PM,59.5,40.3,49,29.89,10.0,North,8.1,17.3,N/A,,Mostly Cloudy,350,2011-11-01 19:33:00
2:53 PM,57.6,39.2,50,29.90,10.0,North,8.1,11.5,N/A,,Overcast,350,2011-11-01 19:53:00
3:12 PM,57.2,40.6,54,29.89,10.0,NNW,12.7,17.3,N/A,Rain,Light Rain,340,2011-11-01 20:12:00
3:32 PM,54.5,42.1,63,29.88,10.0,North,6.9,18.4,N/A,Rain,Light Rain,350,2011-11-01 20:32:00
3:53 PM,55.8,39.9,55,29.91,10.0,NNW,9.2,-,N/A,,Mostly Cloudy,330,2011-11-01 20:53:00
4:13 PM,55.8,39.0,53,29.93,10.0,North,6.9,-,N/A,,Mostly Cloudy,350,2011-11-01 21:13:00
4:33 PM,55.8,39.2,54,29.93,10.0,North,4.6,-,N/A,,Overcast,360,2011-11-01 21:33:00
4:53 PM,55.4,39.2,54,29.93,10.0,North,8.1,16.1,N/A,,Overcast,350,2011-11-01 21:53:00
5:13 PM,54.5,41.5,62,29.93,10.0,NNW,15.0,18.4,N/A,Rain,Light Rain,330,2011-11-01 22:13:00
5:33 PM,54.5,41.0,60,29.95,10.0,NNW,13.8,-,N/A,,Overcast,330,2011-11-01 22:33:00
5:53 PM,52.0,38.7,60,29.96,10.0,NNW,17.3,21.9,N/A,,Mostly Cloudy,330,2011-11-01 22:53:00
6:12 PM,50.9,37.9,61,29.97,10.0,NNW,12.7,-,N/A,,Mostly Cloudy,330,2011-11-01 23:12:00
6:33 PM,49.5,37.4,63,29.98,10.0,NNW,11.5,20.7,N/A,,Scattered Clouds,340,2011-11-01 23:33:00
6:53 PM,49.5,37.8,64,29.98,10.0,NNW,11.5,16.1,N/A,,Scattered Clouds,340,2011-11-01 23:53:00
7:13 PM,49.5,38.1,65,30.00,10.0,NNW,11.5,-,N/A,,Overcast,340,2011-11-02 00:13:00
7:33 PM,49.5,37.8,64,30.00,10.0,NNW,9.2,-,N/A,,Overcast,340,2011-11-02 00:33:00
7:52 PM,49.5,37.8,64,30.01,10.0,NNW,9.2,-,N/A,,Scattered Clouds,340,2011-11-02 00:52:00
8:12 PM,49.5,38.5,66,30.02,10.0,NNW,8.1,-,N/A,,Scattered Clouds,340,2011-11-02 01:12:00
8:33 PM,49.5,39.2,68,30.03,10.0,NNW,8.1,-,N/A,,Mostly Cloudy,330,2011-11-02 01:33:00
8:53 PM,49.1,39.0,68,30.03,10.0,NNW,6.9,-,N/A,,Scattered Clouds,330,2011-11-02 01:53:00
9:33 PM,46.9,38.3,72,30.04,10.0,NW,6.9,-,N/A,,Clear,320,2011-11-02 02:33:00
9:53 PM,46.9,37.6,70,30.04,10.0,NNW,8.1,-,N/A,,Clear,340,2011-11-02 02:53:00
10:33 PM,49.5,39.4,68,30.05,10.0,NNW,11.5,-,N/A,,Mostly Cloudy,330,2011-11-02 03:33:00
10:52 PM,49.5,38.7,66,30.05,10.0,NNW,12.7,-,N/A,,Overcast,330,2011-11-02 03:52:00
11:13 PM,49.5,38.5,66,30.06,10.0,NNW,13.8,18.4,N/A,,Overcast,330,2011-11-02 04:13:00
11:33 PM,49.5,37.8,64,30.06,10.0,NNW,13.8,-,N/A,,Overcast,340,2011-11-02 04:33:00
11:52 PM,49.5,37.2,63,30.05,10.0,NNW,16.1,20.7,N/A,,Overcast,340,2011-11-02 04:52:00